Location: Unspecified
(49.2170°N, 0.0000°E)
Time: 01:02:37
(UTC+00:00)

SR - Pass Details

Date: 29 January 2021
Orbit: 573 x 882 km, 66.7° (Epoch: 03 March)

Event Time Altitude Azimuth Distance (km) Brightness Sun altitude
Exits shadow 04:48:16 32° 358° (N) 1,302 ? -27.2°
Drops below altitude 10° 04:51:46 10° 27° (NNE) 2,379 ? -26.6°
Sets 04:54:27 0° 35° (NE) 3,360 ? -26.2°
